Flag for U.S.A. Weather past 2 weeks in Post Falls, Idaho, U.S.A.

Now
55 °F

Clear.


Feels Like: 54 °F
Forecast: 56 / 94 °F
Wind: 6 mph from Northeast

Location: Coeur d'Alene Weather Reporting System

Current Time: Jul 30, 2015 at 3:42:11 AM

Latest Report: Jul 30, 2015 at 3:15 AM


Visibility: 10 mi

Pressure: 30.16 "Hg (27.86 "Hg at 664m altitude)

Humidity: 51%

Dew point: 37 °F

Location of Post FallsLocation

Historic Weather in Post Falls — Graph

°F

Post Falls temperature yesterday

Maximum temperature yesterday: 88 °F (at 3:35 PM)
Minimum temperature yesterday: 48 °F (at 4:15 AM)
Average temperature yesterday: 70 °F

Past Weeks' High & Low Weather Summary

 TemperatureHumidityPressure
High91 °F (Jul 19, 2:55 PM)88% (Jul 25, 8:35 PM)30.23 "Hg (Jul 25, 8:35 PM)
Low48 °F (Jul 27, 5:35 AM)10% (Jul 18, 10:15 AM)29.72 "Hg (Jul 22, 12:15 AM)
Average69 °F40%29.97 "Hg
* Reported Jul 15 2:15 AM — Jul 30 2:35 AM, Post Falls, Weather by CustomWeather, © 2015

Note: Actual official high and low records may vary slightly from our data, if they occured in-between our weather recording intervals... More about our weather records

Advertising

Post Falls weather history for previous 24 hours

 ConditionsComfort  
Time TempWeatherWind HumidityBarometerVisibility
2:35 AM
Thu, Jul 30
59 °FClear.3 mph55%30.16 "Hg10 mi
2:15 AM61 °FClear.3 mph52%30.16 "Hg10 mi
1:55 AM61 °FClear.3 mph52%30.16 "Hg10 mi
1:35 AM57 °FClear.3 mph51%30.16 "Hg10 mi
1:15 AM61 °FClear.5 mph48%30.15 "Hg10 mi
12:55 AM63 °FClear.3 mph49%30.15 "Hg10 mi
12:35 AM63 °FClear.3 mph49%30.15 "Hg10 mi
12:15 AM64 °FClear.5 mph46%30.15 "Hg10 mi
11:55 PM
Wed, Jul 29
64 °FClear.3 mph46%30.14 "Hg10 mi
11:35 PM64 °FClear.3 mph46%30.14 "Hg10 mi
11:15 PM66 °FClear.5 mph46%30.14 "Hg10 mi
10:55 PM66 °FClear.3 mph46%30.14 "Hg10 mi
10:35 PM66 °FClear.3 mph46%30.14 "Hg10 mi
10:15 PM66 °FClear.6 mph37%30.14 "Hg10 mi
9:55 PM68 °FClear.No wind35%30.13 "Hg10 mi
9:35 PM72 °FClear.3 mph33%30.13 "Hg10 mi
8:35 PM73 °FSunny.3 mph23%30.11 "Hg10 mi
8:15 PM75 °FSunny.5 mph24%30.10 "Hg10 mi
7:55 PM79 °FSunny.5 mph20%30.10 "Hg10 mi
7:35 PM81 °FSunny.5 mph18%30.10 "Hg10 mi
7:15 PM84 °FSunny.6 mph16%30.10 "Hg10 mi
6:55 PM84 °FSunny.8 mph15%30.10 "Hg10 mi
6:35 PM84 °FSunny.10 mph16%30.10 "Hg10 mi
6:15 PM86 °FSunny.13 mph15%30.11 "Hg10 mi
5:55 PM86 °FSunny.12 mph15%30.11 "Hg10 mi
5:35 PM86 °FSunny.8 mph15%30.11 "Hg10 mi
5:15 PM86 °FSunny.10 mph15%30.12 "Hg10 mi
4:55 PM88 °FSunny.7 mph16%30.12 "Hg10 mi
4:35 PM86 °FSunny.10 mph15%30.13 "Hg10 mi
4:15 PM88 °FSunny.12 mph16%30.13 "Hg10 mi
3:55 PM88 °FSunny.13 mph16%30.13 "Hg10 mi
3:35 PM88 °FSunny.10 mph16%30.14 "Hg10 mi
2:55 PM86 °FSunny.14 mph17%30.15 "Hg10 mi
2:35 PM86 °FSunny.14 mph18%30.16 "Hg10 mi
2:15 PM86 °FSunny.12 mph18%30.17 "Hg10 mi
1:55 PM86 °FSunny.9 mph19%30.17 "Hg10 mi
1:35 PM82 °FSunny.10 mph21%30.18 "Hg5 mi
1:15 PM82 °FSunny.9 mph21%30.18 "Hg10 mi
12:55 PM82 °FSunny.7 mph25%30.19 "Hg8 mi
12:35 PM81 °FSunny.No wind26%30.19 "Hg10 mi
12:15 PM79 °FSunny.5 mph28%30.20 "Hg10 mi
11:55 AM79 °FSunny.7 mph28%30.20 "Hg10 mi
11:35 AM79 °FSunny.5 mph26%30.21 "Hg10 mi
11:15 AM77 °FSunny.7 mph28%30.21 "Hg10 mi
10:55 AM75 °FSunny.7 mph29%30.22 "Hg10 mi
10:35 AM75 °FSunny.3 mph29%30.22 "Hg10 mi
10:15 AM73 °FSunny.7 mph33%30.22 "Hg10 mi
9:55 AM72 °FSunny.8 mph38%30.22 "Hg10 mi
9:35 AM72 °FSunny.10 mph38%30.22 "Hg10 mi
9:15 AM70 °FSunny.10 mph40%30.23 "Hg10 mi
8:55 AM68 °FSunny.8 mph43%30.23 "Hg10 mi
8:35 AM66 °FSunny.7 mph46%30.23 "Hg10 mi
8:15 AM64 °FSunny.7 mph52%30.23 "Hg10 mi
7:55 AM63 °FSunny.5 mph59%30.23 "Hg10 mi
7:35 AM61 °FSunny.6 mph63%30.23 "Hg10 mi
7:15 AM61 °FSunny.8 mph63%30.23 "Hg10 mi
6:55 AM57 °FSunny.6 mph67%30.23 "Hg10 mi
6:35 AM54 °FSunny.6 mph67%30.23 "Hg10 mi
6:15 AM50 °FClear.8 mph71%30.23 "Hg10 mi
5:55 AM48 °FClear.7 mph71%30.22 "Hg10 mi
5:35 AM48 °FClear.6 mph71%30.22 "Hg10 mi
5:15 AM48 °FClear.5 mph66%30.22 "Hg10 mi
4:55 AM48 °FClear.No wind71%30.22 "Hg10 mi
4:35 AM48 °FClear.5 mph66%30.21 "Hg10 mi
4:15 AM48 °FClear.5 mph71%30.21 "Hg10 mi
3:55 AM52 °FClear.5 mph62%30.21 "Hg10 mi
3:35 AM54 °FClear.3 mph67%30.21 "Hg10 mi
3:15 AM54 °FClear.5 mph58%30.21 "Hg10 mi
Weather by CustomWeather, © 2015

See weather overviewHow to use our weather pages